Location: Brunembert
(50.7122°N, 1.8935°E)
Time: 08:59:08
(UTC+00:00)

IRS-1A Rocket - Pass Details

Date: 22 April 2021
Orbit: 852 x 930 km, 99.2° (Epoch: 16 May)

Event Time Altitude Azimuth Distance (km) Brightness Sun altitude
Rises 19:43:53 0° 162° (SSE) 3,441 6.9 -7.2°
Reaches altitude 10° 19:46:13 10° 162° (SSE) 2,517 6.2 -7.5°
Maximum altitude 19:51:50 90° 301° (WNW) 893 4.4 -8.3°
Drops below altitude 10° 19:57:37 10° 344° (NNW) 2,586 7.5 -9.1°
Sets 20:00:03 0° 345° (NNW) 3,542 8.3 -9.4°
